EN

Hourly Weather Alleroy

Today, 18 January, Monday

Time Temperature Precipitation Wind Pressure Humidity
00:00 +4°C° 0 mm 1 mps 721 mmHg 87%
01:00 +4°C° 0 mm 1 mps 721 mmHg 87%
02:00 +4°C° 0 mm 1 mps 720 mmHg 87%
03:00 +3°C° 0 mm 1 mps 720 mmHg 87%
04:00 +2°C° 0 mm 2 mps 720 mmHg 88%
05:00 +2°C° 0 mm 2 mps 721 mmHg 90%
06:00 0°C° 0 mm 3 mps 721 mmHg 91%
07:00 0°C° 0 mm 3 mps 722 mmHg 91%
08:00 0°C° 0 mm 3 mps 722 mmHg 90%
09:00 0°C° 0 mm 3 mps 723 mmHg 90%
10:00 0°C° 0 mm 4 mps 724 mmHg 83%
11:00 +1°C° 0 mm 4 mps 724 mmHg 77%
12:00 +2°C° 0 mm 5 mps 725 mmHg 70%
13:00 +3°C° 0.1 mm 4 mps 725 mmHg 75%
14:00 +1°C° 0.1 mm 4 mps 725 mmHg 79%
15:00 +1°C° 0.1 mm 3 mps 725 mmHg 84%
16:00 +1°C° 0.2 mm 3 mps 726 mmHg 86%
17:00 0°C° 0.2 mm 3 mps 726 mmHg 89%
18:00 0°C° 0.2 mm 3 mps 727 mmHg 91%
19:00 -1°C° 0.2 mm 4 mps 727 mmHg 84%
20:00 -2°C° 0.2 mm 4 mps 727 mmHg 77%
21:00 -2°C° 0.2 mm 4 mps 728 mmHg 69%
22:00 -3°C° 0 mm 4 mps 728 mmHg 70%
23:00 -3°C° 0 mm 4 mps 729 mmHg 70%

Tomorrow, 19 January, Tuesday

Time Temperature Precipitation Wind Pressure Humidity
00:00 -4°C° 0 mm 3 mps 729 mmHg 71%
01:00 -4°C° 0 mm 3 mps 729 mmHg 71%
02:00 -4°C° 0 mm 3 mps 729 mmHg 72%
03:00 -5°C° 0 mm 3 mps 730 mmHg 72%
04:00 -5°C° 0.1 mm 3 mps 730 mmHg 74%
05:00 -5°C° 0.1 mm 3 mps 731 mmHg 77%
06:00 -5°C° 0.1 mm 3 mps 731 mmHg 80%
07:00 -4°C° 0 mm 2 mps 732 mmHg 79%
08:00 -4°C° 0 mm 2 mps 732 mmHg 78%
09:00 -3°C° 0 mm 2 mps 732 mmHg 77%
10:00 -3°C° 0 mm 2 mps 732 mmHg 72%
11:00 0°C° 0 mm 1 mps 732 mmHg 67%
12:00 +1°C° 0 mm 1 mps 732 mmHg 62%
13:00 +1°C° 0 mm 1 mps 732 mmHg 60%
14:00 +1°C° 0 mm 1 mps 731 mmHg 58%
15:00 +1°C° 0 mm 2 mps 731 mmHg 56%
16:00 -1°C° 0 mm 2 mps 731 mmHg 60%
17:00 -2°C° 0 mm 2 mps 732 mmHg 64%
18:00 -2°C° 0 mm 2 mps 732 mmHg 68%
19:00 -3°C° 0 mm 2 mps 732 mmHg 72%
20:00 -3°C° 0 mm 2 mps 732 mmHg 75%
21:00 -4°C° 0 mm 2 mps 733 mmHg 79%
22:00 -4°C° 0 mm 2 mps 733 mmHg 82%
23:00 -2°C° 0 mm 1 mps 733 mmHg 85%

Day after tomorrow, 20 January, Wednesday

Time Temperature Precipitation Wind Pressure Humidity
00:00 -2°C° 0 mm 1 mps 733 mmHg 89%
01:00 -2°C° 0.3 mm 1 mps 733 mmHg 91%
02:00 -2°C° 0.3 mm 1 mps 733 mmHg 93%
03:00 -2°C° 0.3 mm 1 mps 733 mmHg 95%
04:00 -2°C° 0.4 mm 1 mps 733 mmHg 94%
05:00 -3°C° 0.4 mm 1 mps 734 mmHg 94%
06:00 -3°C° 0.4 mm 1 mps 734 mmHg 93%
07:00 -3°C° 0.2 mm 1 mps 734 mmHg 91%
08:00 -3°C° 0.2 mm 1 mps 734 mmHg 89%
09:00 -5°C° 0.2 mm 2 mps 735 mmHg 88%
10:00 -4°C° 0.1 mm 2 mps 734 mmHg 86%
11:00 -4°C° 0.1 mm 2 mps 734 mmHg 85%
12:00 -3°C° 0.1 mm 2 mps 734 mmHg 84%
13:00 -3°C° 0.2 mm 2 mps 734 mmHg 85%
14:00 -3°C° 0.2 mm 2 mps 734 mmHg 85%
15:00 -3°C° 0.2 mm 2 mps 734 mmHg 86%
16:00 -4°C° 0.3 mm 2 mps 735 mmHg 87%
17:00 -2°C° 0.3 mm 1 mps 735 mmHg 88%
18:00 -3°C° 0.3 mm 1 mps 736 mmHg 88%
19:00 -3°C° 0.1 mm 1 mps 736 mmHg 88%
20:00 -4°C° 0.1 mm 1 mps 736 mmHg 88%
21:00 -6°C° 0.1 mm 0 mps 736 mmHg 88%
22:00 -6°C° 0 mm 0 mps 737 mmHg 88%
23:00 -6°C° 0 mm 1 mps 737 mmHg 88%

21 January, Thursday

Time Temperature Precipitation Wind Pressure Humidity
00:00 -6°C° 0 mm 1 mps 737 mmHg 87%
01:00 -6°C° 0 mm 1 mps 737 mmHg 86%
02:00 -6°C° 0 mm 1 mps 737 mmHg 84%
03:00 -6°C° 0 mm 1 mps 738 mmHg 83%
04:00 -7°C° 0 mm 2 mps 738 mmHg 81%
05:00 -7°C° 0 mm 2 mps 738 mmHg 80%
06:00 -7°C° 0 mm 2 mps 739 mmHg 78%
07:00 -6°C° 0 mm 2 mps 739 mmHg 75%
08:00 -3°C° 0 mm 1 mps 739 mmHg 71%
09:00 -2°C° 0 mm 1 mps 740 mmHg 67%
10:00 -1°C° 0 mm 1 mps 740 mmHg 63%
11:00 0°C° 0 mm 1 mps 740 mmHg 60%
12:00 +1°C° 0 mm 1 mps 740 mmHg 56%
13:00 +1°C° 0 mm 1 mps 740 mmHg 57%
14:00 +2°C° 0 mm 1 mps 739 mmHg 59%
15:00 +2°C° 0 mm 1 mps 739 mmHg 60%
16:00 +1°C° 0 mm 1 mps 740 mmHg 64%
17:00 0°C° 0 mm 1 mps 740 mmHg 67%
18:00 -1°C° 0 mm 1 mps 741 mmHg 71%
19:00 -1°C° 0 mm 1 mps 741 mmHg 70%
20:00 -1°C° 0 mm 1 mps 741 mmHg 70%
21:00 -1°C° 0 mm 1 mps 742 mmHg 70%
22:00 -1°C° 0 mm 1 mps 742 mmHg 69%
23:00 -1°C° 0 mm 1 mps 741 mmHg 68%

22 January, Friday

Time Temperature Precipitation Wind Pressure Humidity
00:00 -1°C° 0 mm 1 mps 741 mmHg 67%
01:00 -1°C° 0 mm 1 mps 741 mmHg 66%
02:00 -1°C° 0 mm 1 mps 741 mmHg 64%
03:00 -1°C° 0 mm 1 mps 741 mmHg 63%
04:00 -1°C° 0 mm 1 mps 741 mmHg 61%
05:00 -1°C° 0 mm 1 mps 741 mmHg 59%
06:00 -1°C° 0 mm 1 mps 741 mmHg 58%
07:00 0°C° 0 mm 1 mps 741 mmHg 56%
08:00 +1°C° 0 mm 1 mps 741 mmHg 54%
09:00 +2°C° 0 mm 1 mps 741 mmHg 52%
10:00 +4°C° 0 mm 1 mps 740 mmHg 50%
11:00 +5°C° 0 mm 1 mps 740 mmHg 48%
12:00 +6°C° 0 mm 1 mps 739 mmHg 46%
13:00 +6°C° 0 mm 1 mps 739 mmHg 48%
14:00 +6°C° 0 mm 1 mps 739 mmHg 49%
15:00 +6°C° 0 mm 1 mps 738 mmHg 51%
16:00 +5°C° 0 mm 1 mps 738 mmHg 53%
17:00 +3°C° 0 mm 1 mps 738 mmHg 55%
18:00 +2°C° 0 mm 1 mps 738 mmHg 57%
19:00 +2°C° 0 mm 1 mps 738 mmHg 56%
20:00 +1°C° 0 mm 1 mps 738 mmHg 56%
21:00 +1°C° 0 mm 1 mps 738 mmHg 55%
22:00 +1°C° 0 mm 1 mps 737 mmHg 55%
23:00 +1°C° 0 mm 1 mps 737 mmHg 54%

23 January, Saturday

Time Temperature Precipitation Wind Pressure Humidity
00:00 +1°C° 0 mm 1 mps 737 mmHg 53%
01:00 +1°C° 0 mm 1 mps 737 mmHg 52%
02:00 0°C° 0 mm 1 mps 736 mmHg 50%
03:00 0°C° 0 mm 1 mps 736 mmHg 49%
04:00 0°C° 0 mm 1 mps 736 mmHg 48%
05:00 0°C° 0 mm 1 mps 736 mmHg 48%
06:00 -1°C° 0 mm 0 mps 735 mmHg 47%
07:00 0°C° 0 mm 0 mps 736 mmHg 46%
08:00 +1°C° 0 mm 0 mps 736 mmHg 45%
09:00 +2°C° 0 mm 0 mps 736 mmHg 44%
10:00 +3°C° 0 mm 0 mps 735 mmHg 43%
11:00 +4°C° 0 mm 0 mps 735 mmHg 41%
12:00 +6°C° 0 mm 1 mps 735 mmHg 40%
13:00 +6°C° 0 mm 1 mps 735 mmHg 42%
14:00 +5°C° 0 mm 0 mps 734 mmHg 44%
15:00 +5°C° 0 mm 0 mps 734 mmHg 46%
16:00 +4°C° 0 mm 0 mps 734 mmHg 49%
17:00 +3°C° 0 mm 0 mps 734 mmHg 52%
18:00 +2°C° 0 mm 0 mps 734 mmHg 55%
19:00 +2°C° 0 mm 0 mps 735 mmHg 53%
20:00 +1°C° 0 mm 0 mps 735 mmHg 52%
21:00 +1°C° 0 mm 0 mps 735 mmHg 50%
22:00 +1°C° 0 mm 0 mps 735 mmHg 50%
23:00 +1°C° 0 mm 0 mps 734 mmHg 50%
Show more